This is the latest recevied weather packets stored in our database for station/object KE0PRS. If no packets are shown the sender has not sent any weather packets the latest 10 day(s).
| Time | Temp. | Humidity | Pressure | Rain* | Wind** | Luminosity | Snow |
|---|---|---|---|---|---|---|---|
| 1788184675 | 26.67° C | 53% | 1015.9 hPa | 0 mm | - | 168 W/m² | - |
| 1788184372 | 26.11° C | 54% | 1015.9 hPa | 0 mm | - | 165 W/m² | - |
| 1788184067 | 25.56° C | 55% | 1015.8 hPa | 0 mm | - | 155 W/m² | - |
| 1788183764 | 25.56° C | 57% | 1015.7 hPa | 0 mm | - | 146 W/m² | - |
| 1788183462 | 25° C | 58% | 1015.9 hPa | 0 mm | - | 113 W/m² | - |
| 1788183162 | 25° C | 58% | 1016 hPa | 0 mm | - | 96 W/m² | - |
| 1788182858 | 24.44° C | 59% | 1015.9 hPa | 0 mm | - | 61 W/m² | - |
| 1788182553 | 24.44° C | 59% | 1016 hPa | 0 mm | - | 54 W/m² | - |
| 1788182252 | 24.44° C | 59% | 1015.8 hPa | 0 mm | - | 63 W/m² | - |
| 1788181949 | 24.44° C | 59% | 1015.8 hPa | 0 mm | - | 47 W/m² | - |
| 1788181644 | 24.44° C | 58% | 1016.1 hPa | 0 mm | - | 46 W/m² | - |
| 1788181340 | 24.44° C | 59% | 1016.1 hPa | 0 mm | - | 48 W/m² | - |
| 1788181038 | 24.44° C | 59% | 1015.9 hPa | 0 mm | - | 52 W/m² | - |
| 1788180735 | 24.44° C | 59% | 1015.9 hPa | 0 mm | - | 49 W/m² | - |
| 1788180434 | 24.44° C | 59% | 1015.8 hPa | 0 mm | - | 41 W/m² | - |
| 1788180132 | 24.44° C | 59% | 1015.6 hPa | 0 mm | - | 34 W/m² | - |
| 1788179831 | 23.89° C | 59% | 1015.5 hPa | 0 mm | - | 28 W/m² | - |
| 1788179530 | 23.89° C | 59% | 1015.5 hPa | 0 mm | - | 24 W/m² | - |
| 1788179229 | 23.89° C | 60% | 1015.8 hPa | 0 mm | - | 21 W/m² | - |
| 1788178926 | 23.89° C | 59% | 1015.8 hPa | 0 mm | - | 17 W/m² | - |
| 1788178624 | 23.89° C | 59% | 1015.5 hPa | 0 mm | - | 10 W/m² | - |
| 1788178321 | 23.89° C | 59% | 1015.6 hPa | 0 mm | - | 6 W/m² | - |
| 1788178016 | 24.44° C | 58% | 1015.6 hPa | 0 mm | - | 3 W/m² | - |
| 1788177711 | 24.44° C | 58% | 1015.7 hPa | 0 mm | - | 2 W/m² | - |
| 1788177407 | 23.89° C | 59% | 1015.7 hPa | 0 mm | - | 1 W/m² | - |
* Rain latest hour (hover to see other rain measurements)
** Current wind speed in m/s (hover to see current wind gust speed)